Meath Environmental Platform

Observations for Trim Market St

Time AQI Temp °C Hum % Pres Pa CO μg/m³ H₂S μg/m³ NO μg/m³ NO₂ μg/m³ O₃ μg/m³ SO₂ μg/m³ PM1 μg/m³ PM2.5 μg/m³ PM10 μg/m³
Sunday 23 August 2026
18:37 3 22.5 40 65,566 0 0 0.99 8.32 70.11 0 2.85 5.55 5.91
18:36 3 22.5 40 65,572 0 0 0.95 11.69 73.67 0 2.14 6.07 8.33
18:35 3 22.5 40 65,578 0 0 0.95 8.85 77.16 0 2.14 6.6 7.53
18:34 3 22.6 40 65,556 0 0 0.98 10.93 67.95 0 2.14 5.55 6.72
18:32 3 22.7 40 65,560 0 0 1.03 8.54 69.08 0 2.14 5.02 5.1
18:31 3 22.7 40 65,562 0 0 1.04 12.13 68.94 0 1.43 5.01 5.11
18:30 3 22.7 40 65,566 0 0 1.05 14.1 66.13 0 2.14 6.07 8.33
18:29 3 22.8 40 65,566 0 0 1.02 12.25 71.25 0 3.56 6.07 8.33
18:28 3 22.8 40 65,572 0 0 0.97 17.97 67.64 0 4.99 7.67 12.37
18:27 3 22.8 39 65,572 0 0 0.96 11.68 72.75 0 3.56 7.14 8.33
18:20 3 23 40 65,542 0 0 0.96 11.41 69.38 0 2.85 6.08 7.53
18:19 3 23 40 65,566 0 0 0.97 12.25 69.36 0 3.56 7.14 8.33
18:17 3 23 40 65,603 0 0 1.05 13.34 66.78 0 3.56 6.07 6.72
18:09 3 23.2 40 65,566 0.11 0 1.02 15.01 74.24 0 2.85 6.08 6.72
18:06 3 23.3 39 65,603 0 0 1.05 16.94 67.9 0 0.71 4.5 4.95
18:05 3 23.3 39 65,611 0 0 1.05 15.18 75.83 0 0.71 3.97 4.37
18:04 3 23.3 39 65,627 0 0 1.07 15.85 70.86 0 0 4.5 4.95
18:03 3 23.3 39 65,615 0.17 0 1.04 17.44 73.29 0 0 3.44 3.48
18:02 3 23.4 39 65,602 0.63 0 0.97 16.73 75.27 0 1.43 4.51 5.1
18:01 3 23.3 39 65,609 0 0 0.96 16.29 73.08 0 0 3.45 3.79